Location: Kellogg
(38.0159°N, 90.0546°W)
Time: 07:29:16
(UTC+00:00)

Vanguard 2 Rocket - Visible Passes

Search period start: 19 September 2024 00:00
Search period end: 29 September 2024 00:00
Orbit: 553 x 3300 km, 32.9° (Epoch: 18 September)

Date Brightness Start Highest point End Pass type
(mag) Time Alt. Az. Time Alt. Az. Time Alt. Az.
19 Sep 9.3 07:11:02 41° ESE 07:11:02 41° ESE 07:20:45 10° E visible
19 Sep 8.7 09:16:32 46° WSW 09:21:16 69° S 09:39:46 10° ESE visible
20 Sep 10.1 06:11:32 17° E 06:11:32 17° E 06:14:26 10° E visible
20 Sep 8.5 08:17:02 70° SSE 08:17:02 70° SSE 08:33:21 10° E visible
20 Sep 9.3 10:22:33 21° W 10:32:33 58° SSW 10:51:25 10° SE visible
21 Sep 9.3 07:17:35 40° ESE 07:17:35 40° ESE 07:26:53 10° E visible
21 Sep 8.7 09:23:06 45° WSW 09:27:35 64° SSW 09:45:33 10° ESE visible
22 Sep 10.1 06:18:11 16° E 06:18:11 16° E 06:20:40 10° E visible
22 Sep 8.5 08:23:41 66° SSE 08:23:41 66° SSE 08:39:19 10° ESE visible
22 Sep 9.4 10:29:12 20° W 10:38:43 49° SSW 10:56:38 10° SE visible
23 Sep 9.3 07:24:20 38° ESE 07:24:20 38° ESE 07:32:58 10° E visible
23 Sep 8.7 09:29:51 43° WSW 09:33:52 56° SSW 09:51:05 10° SE visible
24 Sep 10.2 06:25:01 15° E 06:25:01 15° E 06:26:51 10° E visible
24 Sep 8.6 08:30:32 59° SSE 08:30:32 59° SSE 08:45:06 10° ESE visible
24 Sep 9.4 10:36:04 19° W 10:44:52 40° SSW 11:01:24 10° SE visible
25 Sep 9.4 07:31:16 34° ESE 07:31:16 34° ESE 07:38:57 10° ESE visible
25 Sep 8.8 09:36:48 40° SW 09:40:08 47° SSW 09:56:16 10° SE visible
26 Sep 10.3 06:32:02 12° E 06:32:02 12° E 06:32:58 10° E visible
26 Sep 8.8 08:37:34 50° S 08:37:34 50° S 08:50:37 10° SE visible
26 Sep 9.5 10:43:06 17° WSW 10:51:02 31° SSW 11:05:34 10° SSE visible
27 Sep 9.6 07:38:22 28° SE 07:38:22 28° SE 07:44:46 10° ESE visible
27 Sep 9.0 09:43:54 34° SW 09:46:25 37° SSW 10:00:59 10° SE visible
28 Sep 9.1 08:44:44 39° S 08:44:44 39° S 08:55:49 10° SE visible
28 Sep 9.7 10:50:16 14° WSW 10:57:16 22° SSW 11:08:52 10° S visible
